This demonstration page uses our WeatherBlox Daily Observations layout. Learn more.

Left ArrowRight Arrow

39.01783, -85.05884

Hourly Observations for December 21, 2017

Temp ( °F °C ) Dew Point ( °F °C ) Humidity (%) Winds ( mph kmh ) Pressure ( in mb ) Visibility ( mi km ) Precip ( " mm )
12:52 am 00:52 Clear 35 1.7 23 -5 61 61 ENE 10 17 30.05 1018 10 16 0.00 0.00
1:52 am 01:52 Mostly Clear 32 0 22 -5.6 66 66 E 7 11 30.05 1018 10 16 0.00 0.00
2:52 am 02:52 Mostly Clear 32 0 22 -5.6 66 66 E 6 9 30.05 1018 10 16 0.00 0.00
3:52 am 03:52 Mostly Clear 30 -1.1 22 -5.6 72 72 ENE 8 13 30.04 1017 10 16 0.00 0.00
4:52 am 04:52 Clear 30 -1.1 22 -5.6 72 72 E 6 9 30.04 1017 10 16 0.00 0.00
5:52 am 05:52 Clear 31 -0.6 22 -5.6 69 69 E 6 9 30.05 1018 10 16 0.00 0.00
6:52 am 06:52 Clear 31 -0.6 22 -5.6 69 69 E 8 13 30.06 1018 10 16 0.00 0.00
7:52 am 07:52 Mostly Clear 29 -1.7 21 -6.1 72 72 E 6 9 30.07 1018 10 16 0.00 0.00
8:52 am 08:52 Mostly Sunny 32 0 22 -5.6 66 66 E 8 13 30.08 1019 10 16 0.00 0.00
9:52 am 09:52 Mostly Sunny 36 2.2 23 -5 59 59 ESE 8 13 30.09 1019 10 16 0.00 0.00
10:52 am 10:52 Mostly Sunny 40 4.4 24 -4.4 53 53 ESE 8 13 30.07 1018 10 16 0.00 0.00
11:52 am 11:52 Mostly Sunny 46 7.8 24 -4.4 42 42 E 8 13 30.05 1018 10 16 0.00 0.00
12:52 pm 12:52 Sunny 50 10 25 -3.9 38 38 ESE 9 15 30.00 1016 10 16 0.00 0.00
1:52 pm 13:52 Mostly Sunny 53 11.7 25 -3.9 34 34 SE 9 15 29.98 1015 10 16 0.00 0.00
2:52 pm 14:52 Mostly Cloudy 54 12.2 29 -1.7 38 38 SE 8 13 29.96 1015 10 16 0.00 0.00
3:52 pm 15:52 Cloudy 55 12.8 32 0 42 42 SSE 7 11 29.96 1015 10 16 0.00 0.00
4:31 pm 16:31 Mostly Cloudy 53 11.7 34 1.1 48 48 S 7 11 29.97 1015 10 16 0.00 0.00
4:52 pm 16:52 Mostly Cloudy 51 10.6 34 1.1 52 52 SSE 6 9 29.96 1015 10 16 0.00 0.00
5:52 pm 17:52 Partly Cloudy 51 10.6 34 1.1 52 52 Calm 29.97 1015 10 16 0.00 0.00
6:52 pm 18:52 Mostly Clear 49 9.4 34 1.1 56 56 SE 3 6 29.96 1015 10 16 0.00 0.00
7:52 pm 19:52 Mostly Clear 46 7.8 39 3.9 77 77 S 10 17 29.96 1015 10 16 0.00 0.00
8:30 pm 20:30 Mostly Cloudy 52 11.1 47 8.3 83 83 SSW 9 15 29.94 1014 10 16 0.00 0.00
8:52 pm 20:52 Cloudy 52 11.1 48 8.9 86 86 S 9 15 29.94 1014 10 16 0.00 0.00
9:52 pm 21:52 Cloudy 53 11.7 49 9.4 86 86 S 10 17 29.93 1014 10 16 0.00 0.00
10:52 pm 22:52 Cloudy 54 12.2 50 10 87 87 S 8 13 29.93 1013 10 16 0.00 0.00
11:52 pm 23:52 Cloudy 54 12.2 51 10.6 90 90 S 10 17 29.91 1013 10 16 0.00 0.00

Powered by AerisWeather